Flag for Cook Islands Weather past 2 weeks in Rarotonga, Cook Islands

Now
66 °F

Passing clouds.


Feels Like: 66 °F
Forecast: 67 / 73 °F
Wind: 7 mph from South

Location: Rarotonga

Current Time: Sep 1, 2015 at 6:42:46 AM

Latest Report: Sep 1, 2015 at 6:00 AM


Visibility: N/A

Pressure: 30.12 "Hg

Humidity: 64%

Dew point: 54 °F

Location of RarotongaLocation

Historic Weather in Rarotonga — Graph

°F

Rarotonga temperature yesterday

Maximum temperature yesterday: 73 °F (at 1:00 PM)
Minimum temperature yesterday: 68 °F (at 12:00 AM)
Average temperature yesterday: 70 °F

Past Weeks' High & Low Weather Summary

 TemperatureHumidityPressure
High81 °F (Aug 17, 12:00 PM)100% (Aug 19, 9:00 AM)30.12 "Hg (Aug 19, 9:00 AM)
Low63 °F (Aug 22, 5:00 AM)39% (Aug 30, 2:00 PM)29.80 "Hg (Aug 25, 6:00 PM)
Average71 °F73%29.97 "Hg
* Reported Aug 17 5:00 AM — Sep 1 5:00 AM, Rarotonga, Weather by CustomWeather, © 2015

Note: Actual official high and low records may vary slightly from our data, if they occured in-between our weather recording intervals... More about our weather records

Advertising

Rarotonga weather history for previous 24 hours

 ConditionsComfort  
Time TempWeatherWind HumidityBarometerVisibility
5:00 AM
Tue, Sep 1
66 °FPassing clouds.8 mph64%30.12 "HgN/A
3:00 AM68 °FPassing clouds.5 mph64%30.09 "HgN/A
2:00 AM68 °FPassing clouds.5 mph64%30.09 "HgN/A
1:00 AM68 °FPassing clouds.5 mph60%30.12 "HgN/A
12:00 AM68 °FPassing clouds.5 mph60%30.12 "HgN/A
11:00 PM
Mon, Aug 31
68 °FPassing clouds.5 mph60%30.12 "HgN/A
10:00 PM68 °FPassing clouds.No wind64%30.09 "HgN/A
9:00 PM68 °FPassing clouds.5 mph60%30.09 "HgN/A
8:00 PM68 °FPassing clouds.5 mph60%30.09 "HgN/A
7:00 PM68 °FPassing clouds.5 mph60%30.07 "HgN/A
6:00 PM70 °FScattered clouds.7 mph57%30.07 "HgN/A
5:00 PM72 °FPassing clouds.9 mph53%30.07 "HgN/A
4:00 PM72 °FPassing clouds.9 mph50%30.04 "HgN/A
3:00 PM72 °FPassing clouds.9 mph47%30.04 "HgN/A
2:00 PM72 °FPassing clouds.10 mph53%30.07 "HgN/A
1:00 PM73 °FPassing clouds.13 mph50%30.07 "HgN/A
12:00 PM72 °FScattered clouds.14 mph53%30.09 "HgN/A
11:00 AM72 °FScattered clouds.9 mph53%30.09 "HgN/A
10:00 AM72 °FScattered clouds.5 mph50%30.09 "HgN/A
9:00 AM70 °FScattered clouds.5 mph53%30.09 "HgN/A
8:00 AM70 °FPartly sunny.5 mph57%30.09 "HgN/A
7:00 AM68 °FBroken clouds.6 mph60%30.07 "HgN/A
6:00 AM68 °FPartly cloudy.6 mph60%30.04 "HgN/A
Weather by CustomWeather, © 2015

See weather overviewHow to use our weather pages